Theta_e
329 327 323 321 320 320 318 317 316 313 315 317 314 315 315 318 317 313 312 312 311 309 308 308 308 308 308 308 308 308 308 308 308 309 310 311 311 311
322 327 325 322 323 320 319 318 319 318 315 322 317 314 316 314 315 312 311 311 309 308 308 307 307 307 307 306 306 306 306 306 306 306 307 307 308 309
324 321 321 325 320 319 319 318 318 320 319 315 315 314 312 311 312 311 312 309 308 308 307 306 306 306 306 305 304 304 304 304 304 305 305 305 306 307
318 320 319 319 324 326 319 324 321 325 324 315 311 310 310 311 310 309 310 310 307 307 307 306 306 305 305 305 304 303 302 302 302 303 303 304 304 305
315 316 318 319 320 319 321 320 320 324 328 316 310 310 309 309 307 308 308 308 306 307 307 306 305 305 305 304 304 302 302 301 301 301 301 301 302 303
315 315 317 318 319 321 320 323 324 324 324 315 309 307 307 307 307 305 303 306 304 306 308 307 307 306 305 304 304 303 301 301 300 300 300 300 300 300
311 314 315 318 317 317 317 322 324 327 315 309 306 305 304 304 303 305 304 302 303 306 308 308 308 307 305 303 302 302 300 300 300 300 299 299 299 298
308 312 312 316 314 312 312 313 315 316 313 309 306 304 304 305 307 305 301 300 300 311 310 307 309 305 303 301 300 300 299 299 299 299 299 299 298 298
308 309 311 312 314 314 312 310 311 311 314 315 307 306 305 307 306 303 302 302 305 309 311 305 309 304 305 302 300 299 299 299 298 298 298 298 298 297
309 310 310 311 314 316 315 316 317 320 317 315 312 311 310 309 307 305 304 306 310 311 314 305 308 305 305 303 301 300 300 299 299 298 297 297 297 298
307 307 308 312 307 305 314 315 320 322 313 310 309 304 302 303 306 306 304 302 306 308 313 309 308 306 306 305 303 301 300 299 299 299 298 297 297 299
307 311 305 309 304 302 313 315 316 311 308 307 306 304 305 305 305 308 307 308 308 306 314 310 308 306 303 307 307 306 302 300 299 298 298 297 296 299
305 308 313 303 300 300 302 316 310 309 307 307 306 306 306 307 308 310 317 313 310 309 312 313 311 310 307 303 305 306 305 302 303 301 299 297 297 295
305 308 310 301 299 299 301 299 301 306 307 305 305 305 305 307 308 317 318 317 319 316 317 319 312 310 306 304 303 306 307 307 306 303 302 299 297 296
305 306 302 300 298 298 299 300 303 307 306 305 306 308 308 310 316 317 318 319 318 316 315 319 313 312 309 305 303 305 305 306 307 302 301 301 298 295
302 300 301 302 303 303 304 307 309 308 307 306 308 311 311 313 313 313 311 311 310 310 315 316 318 315 307 306 306 305 306 303 306 306 304 300 299 297
305 306 305 305 305 307 308 308 308 308 307 308 310 309 310 311 310 312 310 310 307 306 306 308 312 310 306 310 303 304 304 303 305 304 304 300 300 298
308 307 306 307 307 307 307 308 309 308 310 311 310 312 311 309 309 310 310 308 306 303 303 304 304 303 303 303 304 303 303 303 304 305 302 297 296 299
306 305 305 305 306 307 307 308 307 310 312 312 314 313 311 309 308 307 306 304 302 303 304 305 304 302 299 296 303 296 304 304 304 301 302 299 296 295
306 305 305 306 306 306 307 307 307 311 314 313 312 312 310 308 306 304 304 304 304 304 304 305 304 303 300 299 299 298 292 307 306 303 301 301 297 294
306 306 306 307 307 307 308 310 313 312 312 312 310 310 310 306 305 305 304 297 301 305 303 302 304 296 306 305 299 297 297 295 299 302 304 299 297 297
307 307 308 308 309 310 312 312 311 311 311 310 310 310 309 307 305 305 305 305 305 304 304 306 307 309 307 304 302 303 301 301 299 297 296 296 298 293
308 308 308 312 313 313 311 311 311 311 311 311 308 308 309 306 307 307 306 305 305 307 307 307 308 309 307 306 302 305 305 303 303 301 298 296 296 296
Wind_Speed
8 9 8 7 6 7 8 9 10 11 9 5 3 5 5 5 9 8 8 13 13 12 10 10 8 9 10 11 12 13 13 13 13 13 13 13 13 15
10 9 8 8 8 8 8 10 10 10 12 5 3 6 7 6 10 7 9 12 13 12 10 9 10 11 13 13 13 13 13 13 12 11 11 11 13 15
13 11 11 10 9 8 9 10 10 11 12 4 3 8 8 9 7 8 8 7 8 11 11 11 11 12 13 12 12 13 13 13 11 11 12 13 14 15
13 14 14 10 10 9 9 11 11 11 9 6 5 4 8 9 8 7 2 5 6 8 12 11 12 13 11 12 12 13 13 13 12 12 13 14 16 17
10 13 14 13 11 10 10 11 11 10 7 5 5 3 5 8 10 6 6 4 4 9 10 9 11 12 14 15 14 15 15 13 13 12 12 14 17 18
13 12 14 14 13 12 12 11 11 10 3 7 6 9 9 9 8 9 6 6 2 0 3 4 6 11 15 15 17 17 17 16 13 11 13 14 15 17
14 16 15 17 16 13 11 10 11 4 7 8 8 8 8 11 11 7 6 5 1 4 5 4 4 6 9 13 15 17 17 17 17 13 11 12 14 16
11 15 15 16 12 8 9 9 8 3 8 6 6 11 12 11 9 9 7 5 3 6 4 4 4 7 8 8 14 15 18 19 17 14 12 12 13 16
10 12 9 11 10 11 14 14 19 11 8 13 14 12 13 13 13 12 8 7 3 6 5 5 5 7 7 7 12 14 14 16 19 19 16 14 11 11
14 11 11 13 8 10 12 9 14 14 13 9 12 13 12 13 13 11 10 8 5 6 5 5 6 6 5 5 10 9 11 15 18 20 23 18 13 7
12 13 15 16 11 10 11 8 12 10 12 8 12 16 18 18 15 9 7 5 6 6 5 7 5 6 5 4 5 5 9 11 14 17 21 23 18 7
13 14 13 12 8 8 7 9 6 10 14 15 16 17 18 18 16 10 10 8 8 6 5 3 6 5 2 6 6 6 6 8 11 16 17 20 22 9
8 8 8 13 14 11 10 7 12 14 19 15 13 13 13 12 9 6 8 8 8 4 5 2 3 3 4 6 6 5 3 2 5 7 11 15 17 18
8 7 7 8 13 14 7 17 21 19 12 13 13 12 11 9 6 6 10 12 8 8 4 3 1 5 6 6 5 4 5 5 6 8 8 12 16 18
8 8 9 12 12 11 22 24 19 13 13 12 12 11 10 8 11 12 11 14 11 8 5 7 7 8 6 5 4 3 3 6 6 7 9 10 10 9
6 6 7 10 12 19 18 12 11 12 13 14 12 10 10 10 9 10 10 10 10 9 12 11 8 7 8 8 8 8 8 7 7 6 8 8 10 11
11 8 9 10 13 11 10 11 10 11 14 12 10 11 11 12 11 10 10 10 10 10 9 9 12 13 12 8 9 9 9 10 9 10 10 11 12 12
9 10 11 12 11 11 12 12 11 15 12 13 12 13 13 13 12 11 10 10 10 10 10 10 9 10 10 13 18 8 9 9 9 10 11 12 12 12
10 10 11 11 13 13 13 14 14 11 12 13 12 12 12 12 11 12 11 11 11 10 10 9 8 8 10 11 8 21 6 7 8 10 10 11 11 12
10 12 12 12 13 14 15 14 12 10 11 12 12 12 12 12 12 12 11 11 11 10 10 9 10 9 10 10 9 10 21 9 8 7 10 9 8 14
10 12 13 13 14 12 11 9 11 13 12 12 12 12 12 12 12 12 11 12 11 11 11 11 11 11 11 11 11 11 11 14 12 7 6 9 10 10
11 13 12 12 11 10 10 13 14 13 12 12 12 11 11 11 13 13 12 12 11 12 11 9 9 8 9 10 11 12 10 10 12 17 18 14 8 7
13 11 9 11 11 11 13 14 14 13 13 13 12 12 11 12 12 12 13 13 12 11 10 10 8 8 9 9 9 10 14 11 8 9 8 10 10 8
Wind_Direction
231 233 250 261 272 285 289 281 278 284 274 141 133 138 136 137 128 116 120 119 112 97 82 65 49 45 32 19 9 3 352 347 340 336 328 334 330 329
235 235 240 260 266 271 284 276 264 262 270 110 140 152 149 128 132 134 121 117 106 92 79 69 52 39 32 20 13 3 354 353 346 342 346 344 341 338
233 240 244 252 260 271 285 279 264 260 262 82 94 156 135 139 137 125 133 110 103 90 78 73 59 47 32 23 15 12 1 357 352 355 356 354 352 344
236 243 245 249 255 258 261 263 273 287 292 118 131 150 138 134 120 97 92 103 102 94 88 78 61 52 41 30 23 16 10 4 1 4 2 0 359 355
237 252 247 247 254 263 272 274 258 237 235 147 123 133 127 131 118 115 119 103 112 109 99 102 87 65 46 32 30 23 16 11 12 12 9 8 6 359
254 244 260 251 253 259 261 253 255 269 131 141 129 140 140 134 136 142 140 110 178 106 199 93 101 91 63 36 29 23 18 19 18 17 19 14 8 4
253 258 240 245 254 263 266 246 260 251 142 137 137 144 146 154 169 152 134 113 178 226 234 175 93 63 47 38 28 23 23 24 23 22 20 18 13 12
260 254 248 247 224 228 259 272 288 300 163 145 154 167 164 163 155 152 140 130 209 229 192 123 102 75 58 46 35 33 30 28 27 27 30 23 20 20
236 254 261 257 221 246 241 234 257 189 219 172 167 178 165 168 150 142 168 136 209 162 163 140 122 96 85 79 56 44 41 33 30 31 31 20 17 21
251 256 261 261 250 239 232 212 224 227 197 201 175 167 163 153 139 146 168 165 220 154 175 129 122 111 108 106 86 65 46 40 32 34 32 21 7 16
241 243 246 246 237 225 242 255 248 206 153 156 139 125 124 127 136 139 175 176 150 152 193 127 131 120 91 84 136 105 62 29 24 31 29 25 4 17
239 229 221 231 221 201 221 250 173 133 120 107 107 109 121 129 142 183 180 185 149 172 156 151 143 142 138 78 69 88 66 36 47 42 32 25 25 17
228 233 215 207 216 215 211 228 139 125 119 116 119 122 134 152 177 210 257 153 141 139 110 260 163 167 117 109 76 68 46 8 43 36 48 33 34 35
231 243 249 224 198 201 185 128 125 122 122 126 130 136 149 160 191 165 71 74 78 93 111 18 47 104 107 94 78 89 76 61 67 45 43 38 36 25
216 223 234 221 193 142 139 131 128 127 131 133 137 144 151 169 126 102 92 88 86 88 63 44 91 100 102 108 106 87 98 69 64 83 43 42 37 23
167 162 161 143 123 125 130 127 128 136 137 134 137 138 134 137 131 130 122 115 108 91 59 42 58 78 90 82 81 72 64 77 65 69 90 67 48 41
127 123 118 115 118 129 124 116 121 131 131 130 139 139 139 143 138 135 133 130 120 116 104 84 79 73 53 46 82 76 77 67 52 53 52 56 55 44
111 115 117 121 123 124 122 124 126 130 136 139 152 153 143 135 137 143 133 123 119 117 117 124 124 115 97 69 39 60 75 67 73 78 66 61 51 44
102 101 103 112 121 118 120 120 121 147 163 160 147 125 132 129 137 129 129 127 123 130 141 149 129 107 99 88 75 41 17 94 89 72 70 74 75 67
97 105 102 101 107 115 121 131 151 187 138 123 127 123 131 135 131 131 131 127 125 124 109 92 82 77 80 83 81 54 18 27 22 66 103 88 93 132
94 98 104 108 112 122 136 171 142 123 125 122 127 137 131 133 132 127 123 123 116 105 100 96 103 123 121 116 91 75 59 36 46 32 10 85 69 68
104 110 118 123 134 165 169 126 115 117 130 133 129 131 131 128 125 124 130 122 113 115 116 121 169 121 102 98 102 102 94 88 73 53 45 47 55 79
118 136 150 166 143 120 121 126 134 136 131 130 131 128 122 123 138 131 119 121 127 135 137 126 124 107 87 88 106 113 124 106 101 92 80 11 25 22